Location: Chandolas
(44.4033°N, 4.2533°E)
Time: 13:45:58
(UTC+00:00)

Cosmos 839 Rocket - Pass Details

Date: 15 November 2019
Orbit: 968 x 2084 km, 65.9° (Epoch: 06 December)

Event Time Altitude Azimuth Distance (km) Brightness Sun altitude
Exits shadow 04:36:34 25° 231° (SW) 2,137 5.4 -21.7°
Maximum altitude 04:40:53 65° 306° (NW) 1,160 4.1 -21.0°
Drops below altitude 10° 04:47:07 10° 29° (NNE) 2,743 6.6 -19.9°
Sets 04:49:36 0° 32° (NNE) 3,671 7.4 -19.4°
